www.pogodaiklimat.ru

Погода и климат >> Архив погоды >> Пакистан >> Khanpur


ПОГОДА в Khanpur

  • Прогноз погоды в Khanpur
  • Монитор погоды в Khanpur
  • Климат города

АРХИВ ПОГОДЫ в Khanpur

Время (UTC), дата Ветер
(напр.,м/с)
 
Видим.   Явления Облачность Т
(С)
Тd
(С)
f
(%)
Тe
(С)
Тes
(С)
Комфортность P
(гПа)
Po
(гПа)
Тmin
(С)
Tmax
(С)
R
(мм)
R24
(мм)
S
(см)
06 12.12 штиль 0 4000 м дым ясно +17.0 +10.5 66 +17 +27 1019.9 1009.3
09 12.12 штиль 0 4000 м мгла ясно +21.0 +8.8 46 +22 +31 комфорт 1017.8 1000.0
12 12.12 штиль 0 4000 м дым ясно +20.5 +10.4 52 +22 +22 комфорт 1017.2 1006.8 +22.1
15 12.12 штиль 0 2000 м дым ясно +16.0 +11.4 74 +16 +16 1019.0 1000.0
18 12.12 штиль 0 2000 м дымка ясно +12.5 +10.6 88 +12 +12 1020.2 997.3
21 12.12 штиль 0 2000 м дымка ясно +11.0 +10.0 94 +10 +10 1019.4 1000.0
00 13.12 штиль 0 2000 м дымка ясно +8.5 +7.4 93 +8 +8 1020.0 1009.2
03 13.12 штиль 0 1000 м дымка ясно +7.5 +6.4 93 +7 +7 1022.3 1011.3 +7.1
06 13.12 штиль 0 4000 м дым ясно +17.5 +11.1 66 +18 +27 1022.9 1012.4
09 13.12 штиль 0 4000 м мгла ясно +21.5 +9.5 46 +23 +32 комфорт 1022.2 1000.0
12 13.12 штиль 0 4000 м дым ясно +20.0 +12.0 60 +21 +22 комфорт 1021.5 1011.1 +22.1
15 13.12 штиль 0 2000 м дым ясно +15.0 +11.3 79 +15 +15 1021.8 1000.0
18 13.12 штиль 0 2000 м дымка ясно +12.0 +10.1 88 +11 +11 1022.6 996.1
21 13.12 штиль 0 2000 м дымка ясно +10.0 +7.9 87 +9 +9 1022.3 1000.0
00 14.12 штиль 0 1000 м дымка ясно +8.0 +6.9 93 +7 +7 1022.9 1012.0
03 14.12 штиль 0 500 м туман н/о +6.5 +5.4 93 +5 +5 1024.7 1013.8 +6.1
06 14.12 штиль 0 200 м туман н/о +11.0 +10.0 94 +10 +10 1026.3 1015.5
09 14.12 штиль 0 2000 м дым ясно +19.0 +11.8 63 +20 +28 1024.1 1000.0
12 14.12 штиль 0 4000 м дым ясно +18.5 +9.0 54 +19 +19 1023.1 1012.6 +20.5
15 14.12 штиль 0 2000 м дым ясно +13.0 +6.8 66 +13 +13 1024.3 1017.8
18 14.12 штиль 0 2000 м дымка ясно +11.0 +7.9 81 +10 +10 1024.9 1014.1
21 14.12 штиль 0 1000 м дымка ясно +9.5 +7.4 87 +9 +9 1023.5 1000.0
00 15.12 штиль 0 1000 м дымка ясно +9.5 +7.4 87 +9 +9 1023.5 1000.0
03 15.12 штиль 0 200 м туман н/о +5.5 +5.5 100 +4 +4 1011.0 1013.7 +5.1
06 15.12 штиль 0 1000 м дым ясно +16.0 +11.4 74 +16 +26 1004.6 1015.2
09 15.12 штиль 0 4000 м мгла ясно +20.5 +8.1 45 +21 +30 комфорт 1022.7 1000.0
12 15.12 штиль 0 4000 м мгла ясно +20.5 +9.3 49 +22 +22 комфорт 1022.0 1011.6 +22.5
15 15.12 штиль 0 2000 м дым ясно +14.5 +9.7 73 +14 +14 1023.4 1000.0
18 15.12 штиль 0 2000 м дымка ясно +11.5 +8.5 82 +11 +11 1025.0 995.9
21 15.12 штиль 0 1000 м дымка ясно +9.5 +7.4 87 +9 +9 1024.0 1000.0
00 16.12 штиль 0 1000 м дымка ясно +7.0 +5.9 93 +6 +6 1024.1 1013.2
03 16.12 штиль 0 500 м туман ясно +6.0 +4.8 92 +5 +6 1025.3 1014.3 +5.1
06 16.12 штиль 0 2000 м дым ясно +16.0 +11.4 74 +16 +26 1026.1 1015.5
09 16.12 штиль 0 4000 м мгла ясно +21.0 +7.5 42 +22 +31 комфорт 1022.4 1000.0
12 16.12 штиль 0 4000 м дым ясно +20.0 +9.8 52 +21 +21 комфорт 1020.8 1010.4 +22.1
15 16.12 штиль 0 2000 м дым ясно +14.5 +9.7 73 +14 +14 1022.4 1000.0
18 16.12 штиль 0 2000 м дымка ясно +11.5 +9.0 85 +11 +11 1023.7 996.4
21 16.12 штиль 0 1000 м дымка ясно +8.5 +7.4 93 +8 +8 1022.8 1000.0
00 17.12 штиль 0 500 м туман ясно +5.0 +5.0 100 +4 +4 1022.1 1011.1
03 17.12 штиль 0 500 м туман ясно +4.0 +4.0 100 +3 +4 1023.4 1012.4 +3.5
06 17.12 штиль 0 2000 м дым ясно +17.5 +8.9 57 +18 +27 1023.9 1013.4
09 17.12 штиль 0 4000 м мгла ясно +21.0 +7.5 42 +22 +31 комфорт 1022.0 1022.0
12 17.12 штиль 0 4000 м мгла ясно +21.0 +8.8 46 +22 +22 комфорт 1019.5 1009.1 +22.5
15 17.12 штиль 0 2000 м дым ясно +12.0 +7.9 76 +12 +12 1020.5 1000.0
18 17.12 штиль 0 2000 м дымка ясно +9.0 +6.9 87 +8 +8 1021.9 996.9
21 17.12 штиль 0 1000 м дымка ясно +6.5 +5.4 93 +5 +5 1021.1 1000.0
00 18.12 штиль 0 500 м туман ясно +4.0 +2.8 92 +3 +3 1020.2 1009.2
03 18.12 штиль 0 500 м туман ясно +5.0 +3.8 92 +4 +5 1021.5 1010.5 +3.3
06 18.12 штиль 0 2000 м дым ясно +17.0 +9.4 61 +17 +27 1021.7 1011.1
09 18.12 ЮЗ 2 4000 м мгла ясно +22.0 +6.4 36 +23 +29 комфорт 1019.1 1000.0
12 18.12 штиль 0 4000 м мгла ясно +22.0 +9.0 43 +23 +24 комфорт 1017.1 1006.7 +24.5
15 18.12 штиль 0 2000 м дым ясно +13.0 +8.0 72 +13 +13 1017.6 1000.0
18 18.12 штиль 0 2000 м дымка ясно +9.0 +6.9 87 +8 +8 1019.5 1008.7
21 18.12 штиль 0 1000 м дымка ясно +7.0 +5.9 93 +6 +6 1018.7 1000.0
00 19.12 штиль 0 1000 м дымка ясно +5.0 +3.8 92 +4 +4 1015.6 1004.8

 

Местоположение метеостанции Khanpur (Пакистан): широта 28.65 долгота 70.68 высота над уровнем моря 88 м.

В архиве по умолчанию представлена погода в Khanpur за последнюю неделю. Архивные данные за месяц целиком и за предыдущие месяцы, начиная с января 2011 года, Вы можете получить, выбрав интересующий диапазон дат из раскрывающегося списка и нажав кнопку "Ввод!".


*Определитесь, кто Вы:
робот инопланетянин человек

Внимание! Время в таблицах - всемирное. Для получения местного времени необходимо прибавить поправку, которая в Khanpur равна 5 ч.

Смотрите также архив погоды в соседних городах и на ближайших метеорологических станциях:

Погода в Bahawalpur (Пакистан) (136 км)
Погода в Barkhan (Пакистан) (166 км)
Погода в Multan (Пакистан) (187 км)
Погода в Jaisalmer (Rajasthan, Индия) (196 км)
Погода в Rohri (Пакистан) (206 км)
Погода в Jacobabad (Пакистан) (220 км)
Погода в Bikaner (Rajasthan, Индия) (267 км)
Погода в Raifiqui Airbase (Пакистан) (279 км)
Погода в Bahawalnagar (Пакистан) (288 км)
Погода в Sibi (Пакистан) (290 км)

Пояснения к столбцам:

Ветер - указаны скорость ветра в м/с - средняя за 10 мин, порывы в срок и между сроками (в фигурных скобках) и направление, откуда дует ветер: С - северный, СВ - северо-восточный, В - восточный, ЮВ - юго-восточный, Ю - южный, ЮЗ - юго-западный, З - западный, СЗ - северо-западный.
Видимость - горизонтальная дальность видимости в метрах или километрах. При видимости от 1 до 10 км при отсутствии осадков обычно наблюдается дымка, при ухудшении видимости до 1 км и менее - туман. В сухую погоду видимость может ухудшаться дымом, пылью или мглою.
Явления - указаны атмосферные явления, наблюдавшиеся в срок или в последний час перед сроком; фигурными скобками обозначены явления, наблюдавшиеся между сроками (за 1-3 часа до срока); квадратными скобками обозначены град или гололедные отложения с указанием их диаметра в мм.
Облачность - указаны через наклонную черту общая и нижняя облачность в баллах и высота нижней границы облаков в метрах; квадратными скобками обозначены формы облаков: Ci - перистые, Cs - перисто-слоистые, Cc - перисто-кучевые, Ac - высококучевые, As - высокослоистые, Sc - слоисто-кучевые, Ns - слоисто-дождевые, Cu - кучевые, Cb - кучево-дождевые. Подробнее классификацию облаков см. в Атласе облаков (PDF).
T - Температура воздуха - температура, измеренная на высоте 2 м над землей.
Td - Температура точки росы - температура, при понижении до которой содержащийся в воздухе водяной пар достигнет насыщения.
f - Относительная влажность воздуха - влажноcть воздуха, измеренная на высоте 2 м над землей.
Te - Эффективная температура - температура, которую ощущает одетый по сезону человек в тени. Характеристика душности погоды. При расчете учитывается влияние влажности воздуха и скорости ветра на теплоощущения человека.
Tes - Эффективная температура на солнце - температура, которую ощущает человек, с поправкой на солнечный нагрев. Характеристика знойности погоды. Зависит от высоты солнца над горизонтом, облачности и скорости ветра. Ночью, в пасмурную погоду, а также при ветре 12 м/с и более поправка равна нулю.
P - Атмосферное давление - приведенное к уровню моря атмосферное давление.
Po - Атмосферное давление - измеренное на уровне метеостанции атмосферное давление.
Tmin - Минимальная температура - минимум температуры воздуха на высоте 2 м над землей.
Tmax - Максимальная температура - максимум температуры воздуха на высоте 2 м над землей.
R - Количество осадков - Количество выпавших осадков за период времени, мм. При наведении курсора мыши на число - период времени, за который выпало указанное количество осадков.
R24 - Количество осадков - Количество выпавших осадков за 24 часа, мм.
S - Снежный покров - Высота снежного покрова, см. При наведении курсора мыши на число - состояние снежного покрова и степень покрытия местности в баллах.